Regional Weather Roundup
Issued by NWS

Home | Current Version | Previous Version | Graphics & Text | Print | Product List | Glossary On
Versions: 1 2 3 4 5 6 7 8 9 10 11 12 13 14 15 16 17 18 19 20 21 22 23 24 25 26 27 28 29 30 31 32 33 34 35 36 37 38 39 40 41 42 43 44 45 46 47 48 49 50
857
ASUS43 KMPX 110510
RWRMN
WEATHER ROUNDUP FOR MINNESOTA
NATIONAL WEATHER SERVICE TWIN CITIES/CHANHASSEN MN
1100 PM CST SUN DEC 10 2017


NOTE: "FAIR" INDICATES FEW OR NO CLOUDS BELOW 12,000 FEET WITH NO
SIGNIFICANT WEATHER AND/OR OBSTRUCTIONS TO VISIBILITY. N/A MEANS
CURRENT SKY AND/OR WEATHER CONDITIONS ARE NOT AVAILABLE.

MNZ060>063-068>070-110600-
   Twin Cities Metro

CITY           SKY/WX    TMP DP  RH WIND       PRES   REMARKS
TWIN CITIES    CLOUDY    25  22  88 S3        29.98F
ST PAUL        CLOUDY    24  22  91 S7        30.00F FOG     WCI  16
CRYSTAL        CLOUDY    25  19  78 S6        29.96F WCI  18
BLAINE         PTCLDY    27  25  93 S6        29.95F WCI  20
LAKEVILLE        N/A     23  23 100 S3        29.97F
EDEN PRAIRIE   CLOUDY    25  21  85 S5        29.96F WCI  19
SOUTH ST PAUL  CLOUDY    24  22  91 CALM      29.99S FOG
LAKE ELMO      MOCLDY    23  21  93 S3        29.98F
$$
MNZ001>005-007-008-013>017-022>024-027-028-110600-
   Northwest Minnesota

CITY           SKY/WX    TMP DP  RH WIND       PRES   REMARKS
BEMIDJI        LGT SNOW  20  19  94 S6        29.80F VSB 1   WCI  13
HALLOCK        CLOUDY    25  23  93 S15       29.73F WCI  12
ROSEAU         LGT SNOW  21  18  86 S10       29.76F WCI  10
WARROAD        LGT SNOW  19  16  86 S8        29.78F VSB 1   WCI   9
THIEF RVR FALL LGT SNOW  23  21  92 S10       29.78F FOG     WCI  12
CROOKSTON      CLOUDY    25  25 100 S14       29.79F WCI  13
FOSSTON        LGT SNOW  21  21 100 S8        29.80F VSB 1   WCI  12
DETROIT LAKES  LGT SNOW  27  27 100 S8        29.83F WCI  18
MOORHEAD       CLOUDY    28  27  93 CALM      29.83F
PARK RAPIDS    LGT SNOW  22  19  89 S7        29.83F FOG     WCI  13
MAHNOMEN       LGT SNOW  26  24  94 S14       29.81F WCI  14
$$
MNZ006-009>011-018-025>026-110600-
   North Central Minnesota

CITY           SKY/WX    TMP DP  RH WIND       PRES   REMARKS
BAUDETTE       LGT SNOW  19  17  92 SE8       29.80F VSB 3/4 WCI   9
FLAG ISLAND    LGT SNOW  18  16  93 SE15      29.77F WCI   3
INTL FALLS     CLOUDY    11   7  84 SE6       29.86F WCI   1
WASKISH        LGT SNOW  19  18  93 SE3       29.81F
BIG FORK       CLOUDY    18  14  86 CALM      29.85F
GRAND RAPIDS   CLOUDY    19  15  84 SE6       29.88F WCI  11
ORR            CLOUDY    10   7  85 SE3       29.86S
COOK           CLOUDY     9   5  85 CALM      29.89F
WALKER         LGT SNOW  21  19  91 CALM      29.83F
$$
MNZ012-019>021-037-110600-
   Northeast Minnesota

CITY           SKY/WX    TMP DP  RH WIND       PRES   REMARKS
DULUTH         CLOUDY    13  10  88 S3        29.90F
ELY            CLOUDY     3   0  85 CALM      29.89F
HIBBING        CLOUDY     9   6  88 CALM      29.89F
EVELETH        CLOUDY     5   1  85 CALM      29.90F
DULUTH HARBOR  CLOUDY    16  12  86 SW3       29.97F
TWO HARBORS    CLOUDY    10   5  79 CALM      29.92S
G MARAIS ARPRT CLOUDY    -4 -11  71 CALM      29.89S
$$
MNZ029>031-032-039>041-046>048-054>057-064-110600-
   West Central Minnesota

CITY           SKY/WX    TMP DP  RH WIND       PRES   REMARKS
FERGUS FALLS   LGT SNOW  27  27 100 S9        29.89F WCI  17
MORRIS         CLOUDY    30  25  80 S8        29.89S WCI  23
ALEXANDRIA     LGT SNOW  27  25  92 SW8       29.89R VSB 3/4 WCI  19
ELBOW LAKE     LGT SNOW  28  26  91 SE8       29.88F WCI  20
WADENA         LGT SNOW  23  21  93 S5        29.86S VSB 1   WCI  17
GLENWOOD       LGT SNOW  27  27 100 SW6       29.90R WCI  20
BENSON         CLOUDY    32  27  80 SW5       29.92S WCI  27
ORTONVILLE     CLOUDY    32  27  80 S3        29.88F
MADISON        CLOUDY    36  30  80 SW5       29.90F
WILLMAR        FAIR      32  27  80 S3        29.91F
$$
MNZ033>034-036-042>043-049>051-058-059-110600-
   Central Minnesota

CITY           SKY/WX    TMP DP  RH WIND       PRES   REMARKS
ST CLOUD       CLOUDY    24  21  88 SE7       29.91F WCI  16
SAUK CENTRE    LGT SNOW  26  24  89 S5        29.90S WCI  21
PAYNESVILLE    LGT SNOW  28  26  91 S5        29.90F WCI  23
AITKIN         CLOUDY    21  18  86 S6        29.87F WCI  14
PINE RIVER     LGT SNOW  19  18  93 S5        29.89F WCI  13
BRAINERD       CLOUDY    25  20  81 S3        29.88F
STAPLES        LGT SNOW  23  19  86 S6        29.86F WCI  16
LONG PRAIRIE   MOCLDY    27  21  80 SE5       29.88F WCI  21
LITTLE FALLS   CLOUDY    27  18  69 SE3       29.89F
LITCHFIELD     MIX PCPN  28  27  93 CALM      29.92F
BUFFALO        CLOUDY    25  21  86 SE3       29.95F
MAPLE LAKE     MOCLDY    26  24  89 CALM      29.94F
HUTCHINSON     CLOUDY    29  26  89 S3        29.94F
$$
MNZ037-044-045-052-053-110600-
   East Central Minnesota

CITY           SKY/WX    TMP DP  RH WIND       PRES   REMARKS
PRINCETON      CLOUDY    25  21  86 SE3       29.92F
MORA           CLOUDY    19  18  93 CALM      29.96F
CAMBRIDGE      CLOUDY    25  19  80 CALM      29.95F
RUSH CITY      CLOUDY    21  18  86 S3        29.96F
MOOSE LAKE     CLOUDY    18  14  86 CALM      29.92F
HINCKLEY       CLOUDY    19  18  93 CALM      29.95F
CLOQUET        CLOUDY    16  10  79 CALM      29.91F
MCGREGOR       CLOUDY    21  19  93 S7        29.90F WCI  13
$$
MNZ071>073-080-081-089-090-097-098-110600-
   Southwest Minnesota

CITY           SKY/WX    TMP DP  RH WIND       PRES   REMARKS
MONTEVIDEO     CLOUDY    32  25  74 SW6       29.90F WCI  26
GRANITE FALLS  CLOUDY    34  28  77 SE8       29.93F WCI  27
CANBY          LGT RAIN  39  30  69 SW7       29.91F
MARSHALL       CLOUDY    34  27  75 SW6       29.93F WCI  29
REDWOOD FALLS  CLOUDY    32  26  78 S7        29.93F WCI  26
OLIVIA         CLOUDY    32  28  86 S6        29.91F WCI  26
PIPESTONE      CLOUDY    34  27  75 W8        29.93F WCI  27
WINDOM           N/A     32  19  59 S5        29.94F WCI  27
WORTHINGTON    CLOUDY    33  27  78 W7        29.94F WCI  27
JACKSON        PTCLDY    32  28  86 MISG      29.95F
TRACY          PTCLDY    35  30  83 SW5       29.92F WCI  30
$$
MNZ065>067-074>077-082>085-091>093-110600-
   South Central Minnesota

CITY           SKY/WX    TMP DP  RH WIND       PRES   REMARKS
MANKATO        CLOUDY    29  26  89 SE6       29.98F WCI  23
NEW ULM        CLOUDY    30  27  86 S5        29.96F WCI  25
ST JAMES       CLOUDY    30  28  93 S3        29.97F
FAIRMONT       PTCLDY    31  28  89 SW3       29.98S
GLENCOE        CLOUDY    28  26  89 S3        29.95F
FARIBAULT      CLOUDY    25  21  86 CALM      29.98F
WASECA         CLOUDY    27  23  86 SE3       29.98F
ALBERT LEA     CLOUDY    28  23  80 S3        29.97S
$$
MNZ078>079-086>088-094>096-110600-
   Southeast Minnesota

CITY           SKY/WX    TMP DP  RH WIND       PRES   REMARKS
ROCHESTER      CLOUDY    23  21  92 S5        29.98F WCI  17
RED WING       CLOUDY    19  18  93 CALM      29.99F
STANTON        CLOUDY    25  22  88 S3        29.98S
DODGE CENTER   CLOUDY    21  19  93 SE3       29.97F
WINONA         CLOUDY    30  23  74 CALM      30.04S
AUSTIN         CLOUDY    25  21  86 S3        29.98S
PRESTON        CLOUDY    22  19  88 CALM      29.99F
$$
ABBREVIATIONS USED IN REMARKS
   TC - TEMPERATURES IN CELSIUS
  WCI - WIND CHILL INDEX
   HX - HEAT INDEX
  VSB - VISIBILITY
$$




USA.gov is the U.S. government's official web portal to all federal, state and local government web resources and services.